This is the latest recevied weather packets stored in our database for station/object DB0NLS-15. If no packets are shown the sender has not sent any weather packets the latest 10 day(s).
| Time | Temp. | Humidity | Pressure | Rain* | Wind** | Luminosity | Snow |
|---|---|---|---|---|---|---|---|
| 1777528534 | 5° C | 60% | 1021 hPa | 0 mm | - | - | - |
| 1777527932 | 3.89° C | 63% | 1021 hPa | 0 mm | - | - | - |
| 1777527329 | 2.78° C | 65% | 1021 hPa | 0 mm | - | - | - |
| 1777526726 | 2.22° C | 66% | 1021 hPa | 0 mm | - | - | - |
| 1777526124 | 1.11° C | 68% | 1021 hPa | 0 mm | - | - | - |
| 1777525521 | 0° C | 70% | 1021 hPa | 0 mm | - | - | - |
| 1777524918 | -0.56° C | 71% | 1020.9 hPa | 0 mm | - | - | - |
| 1777524316 | -1.11° C | 72% | 1020.9 hPa | 0 mm | - | - | - |
| 1777523773 | -1.67° C | 73% | 1020.7 hPa | 0 mm | - | - | - |
| 1777523170 | -2.22° C | 75% | 1020.7 hPa | 0 mm | - | - | - |
| 1777522568 | -2.78° C | 75% | 1020.7 hPa | 0 mm | - | - | - |
| 1777521965 | -2.78° C | 75% | 1020.6 hPa | 0 mm | - | - | - |
| 1777521362 | -2.78° C | 76% | 1020.5 hPa | 0 mm | - | - | - |
| 1777520759 | -2.78° C | 76% | 1020.5 hPa | 0 mm | - | - | - |
| 1777520157 | -2.78° C | 75% | 1020.5 hPa | 0 mm | - | - | - |
| 1777519554 | -2.78° C | 75% | 1020.5 hPa | 0 mm | - | - | - |
| 1777518952 | -2.78° C | 75% | 1020.5 hPa | 0 mm | - | - | - |
| 1777518349 | -2.78° C | 75% | 1020.5 hPa | 0 mm | - | - | - |
| 1777517746 | -2.78° C | 75% | 1020.3 hPa | 0 mm | - | - | - |
| 1777517144 | -2.78° C | 75% | 1020.3 hPa | 0 mm | - | - | - |
| 1777516541 | -2.22° C | 74% | 1020.2 hPa | 0 mm | - | - | - |
| 1777515938 | -2.22° C | 74% | 1020.3 hPa | 0 mm | - | - | - |
| 1777515336 | -2.22° C | 74% | 1020.3 hPa | 0 mm | - | - | - |
| 1777514733 | -2.22° C | 73% | 1020.4 hPa | 0 mm | - | - | - |
| 1777514130 | -2.22° C | 73% | 1020.3 hPa | 0 mm | - | - | - |
* Rain latest hour (hover to see other rain measurements)
** Current wind speed in m/s (hover to see current wind gust speed)